Weather in Vasilevichi

Belarus     52°14′38″N   29°49′51″E
temp.,
°C
wind,
m/s
gust,
m/s
humid.,
%
clouds,
%
prec.,
mm/h
press.,
hPa
HPBL,
m
17 august, wed
wed1700:00+23e61248100 0.0 1012883
03:00+21ene3854100 0.0 1012274
06:00+18ne386853 0.0 1012164
09:00+23e585177 0.0 1011544
12:00+27e584187 0.0 10111210
15:00+28e563898 0.0 10111535
18:00+29ene454181 0.0 10111811
21:00+20ene39825 0.6 1012142
18 august, thu
thu1800:00+17ene37805 0.0 1012126
03:00+16ne3479100 0.0 101270
06:00+16ne39785 0.0 1012141
09:00+23ene58525 0.0 1013406
12:00+29ne56355 0.0 10131043
15:00+31ene66320 0.0 10121742
18:00+29ene68363 0.0 10131784
21:00+22ne411604 0.0 1014314
19 august, fri
fri1900:00+19ne411650 0.0 1014237
03:00+17ne39720 0.0 1015156
06:00+16ne38772 0.0 1015155
09:00+22ene47535 0.0 1016394
12:00+28ene58410 0.0 10161260
15:00+29ene78351 0.0 10151967
18:00+28ene674117 0.0 10152044
21:00+20ene410740 0.0 1016363
20 august, sat
sat2000:00+17ene410920 0.0 1016323
03:00+15ne37977 0.0 1017190
06:00+14ne369817 0.0 1017154
09:00+20e46729 0.0 1016557
12:00+24e455559 0.0 10161319
15:00+26e444835 0.0 10151628
18:00+25ese445236 0.0 10151196
21:00+22ene3665100 0.0 1015158
21 august, sun
sun2100:00+20ene377193 0.0 1014207
03:00+18e378090 0.0 1014147
06:00+18e366865 0.2 1014150
09:00+21e464421 0.2 1014309
12:00+28ese453083 0.0 10131059
15:00+30ese453256 0.0 10121857
18:00+25e41048100 0.1 1012374
21:00+23e410436 0.2 1013330